20050115,000027,952606,33.567260,-120.775266,14.505,33.163,1.176,3.144
20050115,000056,952634,33.567630,-120.774075,14.499,33.168,1.240,3.282
20050115,000127,952666,33.568100,-120.772636,14.494,33.168,1.240,3.276
20050115,000156,952695,33.568331,-120.771141,14.492,33.168,1.306,3.427
20050115,000227,952725,33.568703,-120.769538,14.494,33.165,1.293,3.390
20050115,000257,952755,33.569198,-120.767953,14.492,33.167,1.279,3.346
20050115,000327,952786,33.569778,-120.766386,14.492,33.163,1.358,3.520
20050115,000357,952816,33.570405,-120.764833,14.499,33.161,1.358,3.515
20050115,000427,952845,33.571063,-120.763310,14.502,33.162,1.371,3.538
20050115,000457,952875,33.571753,-120.761796,14.508,33.161,1.358,3.503
20050115,000527,952905,33.572323,-120.760561,14.507,33.166,1.398,3.583
20050115,000557,952936,33.572775,-120.759980,14.510,33.162,1.358,2.829
20050115,000627,952966,33.573131,-120.759696,14.524,33.154,1.425,3.197
20050115,000657,952996,33.573553,-120.759476,14.528,33.159,1.385,3.402
20050115,000727,953025,33.573998,-120.758991,14.525,33.161,1.358,2.927
20050115,000756,953055,33.574350,-120.758346,14.525,33.152,1.385,3.472
20050115,000826,953085,33.574751,-120.757613,14.520,33.145,1.358,3.448
20050115,000857,953116,33.575171,-120.756888,14.520,33.131,1.412,3.547
20050115,000927,953146,33.575590,-120.756156,14.518,33.152,1.439,3.604
20050115,000957,953176,33.575995,-120.755421,14.517,33.158,1.465,3.651
20050115,001027,953205,33.576401,-120.754685,14.516,33.160,1.465,3.641
20050115,001057,953235,33.576743,-120.754111,14.513,33.160,1.479,3.333
20050115,001127,953265,33.577040,-120.753873,14.510,33.163,1.479,3.531
20050115,001156,953294,33.577228,-120.753808,14.511,33.151,1.452,3.394
20050115,001227,953326,33.577418,-120.753821,14.511,33.140,1.465,3.567
20050115,001257,953355,33.577608,-120.753833,14.511,33.145,1.479,3.508
20050115,001327,953385,33.577741,-120.753831,14.510,33.150,1.465,3.615
20050115,001357,953415,33.577781,-120.753785,14.508,33.155,1.439,3.545
20050115,001427,953446,33.577791,-120.753721,14.507,33.154,1.439,3.541
20050115,001457,953476,33.577830,-120.753641,14.508,33.156,1.506,3.672
20050115,001527,953506,33.577911,-120.753595,14.505,33.159,1.520,3.311
20050115,001557,953535,33.578008,-120.753563,14.503,33.154,1.616,2.943
20050115,001628,953567,33.578113,-120.753595,14.503,33.157,1.700,3.159
20050115,001658,953596,33.578193,-120.753636,14.502,33.158,1.785,3.560
20050115,001728,953626,33.578306,-120.753665,14.504,33.157,1.644,2.936
20050115,001758,953656,33.578395,-120.753705,14.506,33.155,1.602,2.868
20050115,001827,953685,33.578460,-120.753718,14.505,33.156,1.574,2.820
20050115,001858,953717,33.578506,-120.753703,14.505,33.158,1.602,2.886
20050115,001928,953747,33.578550,-120.753721,14.503,33.160,1.602,2.867
20050115,001957,953775,33.578605,-120.753713,14.502,33.159,1.672,3.084
20050115,002027,953806,33.578631,-120.753698,14.503,33.157,1.771,3.134
20050115,002057,953836,33.578651,-120.753676,14.502,33.159,1.728,3.054
20050115,002128,953867,33.578658,-120.753635,14.503,33.157,1.771,3.120
20050115,002158,953897,33.578651,-120.753585,14.504,33.159,1.799,3.291
20050115,002228,953927,33.578636,-120.753533,14.503,33.159,1.828,4.036
20050115,002257,953956,33.578681,-120.753486,14.500,33.161,1.828,4.112
20050115,002327,953986,33.578710,-120.753455,14.497,33.161,1.828,3.258
20050115,002358,954016,33.578721,-120.753413,14.498,33.157,1.886,3.295
20050115,002428,954047,33.578716,-120.753363,14.497,33.160,1.871,3.801
20050115,002458,954077,33.578755,-120.753365,14.499,33.160,1.871,3.763
20050115,002527,954105,33.578826,-120.753400,14.500,33.158,1.914,3.333
20050115,002559,954138,33.578896,-120.753411,14.501,33.158,1.842,3.220
20050115,002628,954166,33.578931,-120.753418,14.500,33.158,1.900,3.328
20050115,002658,954197,33.578950,-120.753400,14.502,33.158,1.886,4.240
20050115,002728,954227,33.578958,-120.753393,14.503,33.158,1.813,4.115
20050115,002758,954257,33.579005,-120.753456,14.504,33.159,1.813,4.101
20050115,002827,954286,33.579050,-120.753501,14.503,33.159,1.871,3.781
20050115,002858,954316,33.579081,-120.753550,14.505,33.158,1.886,3.282
20050115,002928,954346,33.579108,-120.753575,14.505,33.158,1.842,3.212
20050115,002958,954377,33.579146,-120.753590,14.505,33.159,1.857,3.415
20050115,003029,954407,33.579166,-120.753586,14.506,33.158,1.842,3.912
20050115,003058,954437,33.579173,-120.753575,14.506,33.159,1.857,4.106
20050115,003128,954466,33.579150,-120.753528,14.506,33.159,1.886,4.145
20050115,003158,954496,33.579116,-120.753483,14.507,33.157,1.871,4.108
20050115,003228,954526,33.579083,-120.753411,14.507,33.158,1.871,4.092
20050115,003259,954557,33.579088,-120.753350,14.505,33.158,1.900,3.904
20050115,003329,954587,33.579108,-120.753270,14.506,33.160,1.900,3.442
20050115,003358,954616,33.579100,-120.753215,14.506,33.158,1.871,3.240
20050115,003429,954648,33.579065,-120.753150,14.507,33.157,1.914,3.560
20050115,003459,954678,33.579016,-120.753083,14.507,33.159,1.857,3.916
20050115,003529,954707,33.579010,-120.753005,14.504,33.161,1.871,3.769
20050115,003559,954737,33.579066,-120.752956,14.503,33.160,1.886,3.370
20050115,003629,954767,33.579125,-120.752933,14.498,33.162,1.914,3.798
20050115,003659,954798,33.579200,-120.752955,14.496,33.160,1.929,4.112
20050115,003729,954828,33.579303,-120.752968,14.496,33.160,1.914,3.786
20050115,003759,954857,33.579401,-120.753005,14.499,33.156,1.914,3.296
20050115,003829,954887,33.579476,-120.753021,14.500,33.158,1.886,3.252
20050115,003900,954919,33.579526,-120.753031,14.500,33.159,1.857,3.855
20050115,003929,954948,33.579593,-120.753045,14.500,33.158,1.871,3.468
20050115,004000,954978,33.579685,-120.753045,14.502,33.158,1.914,3.359
20050115,004030,955008,33.579758,-120.753036,14.500,33.160,1.886,3.644
20050115,004059,955037,33.579843,-120.753048,14.502,33.159,1.886,3.340
20050115,004130,955069,33.579931,-120.753040,14.501,33.159,1.900,3.373
20050115,004200,955099,33.580028,-120.753061,14.499,33.159,1.886,3.883
20050115,004230,955128,33.580120,-120.753111,14.500,33.159,1.886,3.610
20050115,004300,955158,33.580226,-120.753150,14.500,33.157,1.900,3.254
20050115,004329,955188,33.580316,-120.753168,14.503,33.157,1.914,3.270
20050115,004400,955219,33.580373,-120.753151,14.505,33.156,1.871,3.202
20050115,004430,955249,33.580405,-120.753130,14.506,33.158,1.886,3.222
20050115,004501,955280,33.580440,-120.753083,14.505,33.159,1.929,3.287
20050115,004530,955308,33.580451,-120.753018,14.507,33.155,1.929,3.285
20050115,004600,955338,33.580461,-120.752940,14.509,33.155,1.914,3.262
20050115,004630,955369,33.580460,-120.752900,14.508,33.158,1.914,3.258
20050115,004700,955399,33.580493,-120.752818,14.506,33.162,1.871,3.190
20050115,004730,955429,33.580506,-120.752748,14.504,33.160,1.886,3.214
20050115,004800,955458,33.580491,-120.752696,14.501,33.160,1.886,3.213
20050115,004831,955490,33.580465,-120.752595,14.501,33.159,1.900,3.229
20050115,004900,955518,33.580440,-120.752521,14.504,33.158,1.929,3.443
20050115,004930,955549,33.580456,-120.752443,14.505,33.156,1.914,3.268
20050115,005000,955579,33.580458,-120.752375,14.500,33.161,1.944,3.290
20050115,005030,955608,33.580503,-120.752328,14.500,33.161,1.944,3.286
20050115,005059,955638,33.580563,-120.752278,14.499,33.159,1.914,3.560
20050115,005130,955668,33.580581,-120.752245,14.499,33.158,1.929,3.704
20050115,005201,955699,33.580608,-120.752250,14.505,33.155,1.914,3.647
20050115,005230,955729,33.580683,-120.752250,14.502,33.157,1.900,3.307
20050115,005300,955759,33.580741,-120.752235,14.502,33.157,1.929,3.273
20050115,005330,955788,33.580781,-120.752188,14.502,33.159,1.944,3.440
20050115,005400,955818,33.580845,-120.752113,14.503,33.162,1.914,3.429
20050115,005430,955848,33.580888,-120.752086,14.499,33.159,1.900,3.214
20050115,005501,955879,33.580946,-120.752000,14.499,33.159,1.929,3.290
20050115,005530,955909,33.580978,-120.751966,14.501,33.156,1.929,3.567
20050115,005600,955939,33.580980,-120.751926,14.506,33.154,1.929,3.561
20050115,005630,955968,33.580966,-120.751898,14.503,33.158,1.914,3.525
20050115,005700,955998,33.580965,-120.751886,14.502,33.158,1.944,3.543
20050115,005730,956028,33.580970,-120.751881,14.503,33.160,1.900,3.442
20050115,005801,956059,33.580981,-120.751846,14.502,33.158,1.929,3.336
20050115,005831,956089,33.581031,-120.751833,14.505,33.156,1.900,3.288
20050115,005901,956120,33.581081,-120.751815,14.503,33.156,1.929,3.420
20050115,005931,956150,33.581140,-120.751836,14.503,33.157,1.871,3.355
20050115,010001,956180,33.581193,-120.751853,14.499,33.160,1.944,3.471
20050115,010031,956209,33.581226,-120.751850,14.497,33.159,1.886,3.341
20050115,010100,956239,33.581243,-120.751833,14.496,33.158,1.958,3.264
20050115,010131,956269,33.581286,-120.751813,14.496,33.156,1.944,3.384
20050115,010201,956300,33.581315,-120.751766,14.497,33.159,1.944,3.407
20050115,010231,956330,33.581328,-120.751730,14.497,33.157,1.929,3.372
20050115,010301,956360,33.581313,-120.751695,14.497,33.159,1.900,3.314
20050115,010331,956389,33.581308,-120.751641,14.497,33.159,1.871,3.264
20050115,010401,956419,33.581308,-120.751603,14.497,33.157,1.914,3.316
20050115,010431,956449,33.581336,-120.751590,14.497,33.155,1.900,3.278
20050115,010501,956480,33.581341,-120.751543,14.499,33.156,1.900,3.273
20050115,010531,956510,33.581330,-120.751475,14.500,33.157,1.886,3.243
20050115,010601,956539,33.581303,-120.751418,14.499,33.158,1.929,3.296
20050115,010631,956569,33.581286,-120.751338,14.499,33.157,1.944,3.298
20050115,010701,956599,33.581251,-120.751263,14.500,33.157,1.929,3.227
20050115,010731,956630,33.581215,-120.751178,14.501,33.157,1.871,3.102
20050115,010801,956660,33.581223,-120.751101,14.499,33.156,1.871,3.110
20050115,010831,956690,33.581245,-120.751051,14.495,33.161,1.914,3.229
20050115,010900,956719,33.581243,-120.751005,14.494,33.159,1.886,3.158
20050115,010931,956749,33.581218,-120.750960,14.492,33.159,1.914,3.213
20050115,011001,956779,33.581196,-120.750966,14.494,33.156,1.886,3.168
20050115,011031,956810,33.581198,-120.751005,14.494,33.154,1.842,3.096
20050115,011101,956840,33.581221,-120.751076,14.497,33.156,1.871,3.128
20050115,011131,956869,33.581260,-120.751140,14.497,33.159,1.857,3.102
20050115,011201,956899,33.581306,-120.751166,14.495,33.158,1.842,3.044
20050115,011231,956929,33.581360,-120.751136,14.498,33.152,1.929,3.166
20050115,011301,956959,33.581465,-120.751088,14.501,33.155,1.900,3.121
20050115,011331,956990,33.581511,-120.751051,14.500,33.155,1.857,3.061
20050115,011401,957020,33.581533,-120.750973,14.498,33.159,1.871,3.099
20050115,011431,957049,33.581530,-120.750926,14.498,33.158,1.929,3.169
20050115,011501,957079,33.581523,-120.750906,14.497,33.159,1.929,3.166
20050115,011532,957111,33.581540,-120.750885,14.495,33.160,1.929,3.165
20050115,011601,957140,33.581535,-120.750898,14.497,33.158,1.886,3.098
20050115,011631,957170,33.581525,-120.750893,14.496,33.157,1.900,3.112
20050115,011701,957200,33.581528,-120.750920,14.495,33.159,1.871,3.068
20050115,011731,957229,33.581530,-120.750958,14.494,33.158,1.886,3.087
20050115,011801,957259,33.581563,-120.751035,14.494,33.157,1.857,3.041
20050115,011831,957289,33.581628,-120.751133,14.491,33.159,1.886,3.082
20050115,011902,957320,33.581733,-120.751193,14.489,33.159,1.886,3.079
20050115,011931,957350,33.581870,-120.751240,14.492,33.155,1.842,3.014
20050115,012002,957381,33.582013,-120.751293,14.493,33.156,1.929,3.139
20050115,012031,957409,33.582173,-120.751381,14.494,33.157,1.929,3.138
20050115,012102,957441,33.582320,-120.751521,14.495,33.158,1.886,3.074
20050115,012131,957470,33.582470,-120.751680,14.492,33.160,1.944,3.157
20050115,012202,957500,33.582618,-120.751815,14.492,33.157,1.929,3.134
20050115,012232,957530,33.582753,-120.751925,14.494,33.157,1.900,3.091
20050115,012302,957561,33.582876,-120.752043,14.493,33.158,1.914,3.111
20050115,012332,957591,33.583010,-120.752168,14.497,33.155,1.929,3.131
20050115,012401,957619,33.583133,-120.752310,14.494,33.158,1.886,3.068
20050115,012432,957650,33.583265,-120.752450,14.494,33.157,1.871,3.046
20050115,012502,957680,33.583403,-120.752570,14.491,33.158,1.857,3.024
20050115,012532,957710,33.583525,-120.752688,14.492,33.154,1.857,3.023
20050115,012601,957739,33.583650,-120.752778,14.490,33.157,1.842,3.002
20050115,012632,957771,33.583780,-120.752903,14.492,33.155,1.871,3.043
20050115,012702,957800,33.583886,-120.753050,14.492,33.154,1.857,3.021
20050115,012732,957830,33.584011,-120.753171,14.491,33.155,1.886,3.063
20050115,012802,957860,33.584153,-120.753285,14.491,33.156,1.857,3.020
20050115,012832,957891,33.584276,-120.753415,14.494,33.153,1.900,3.082
20050115,012902,957921,33.584398,-120.753545,14.492,33.156,1.857,3.020
20050115,012933,957951,33.584513,-120.753695,14.491,33.157,1.842,2.998
20050115,013002,957980,33.584646,-120.753833,14.493,33.153,1.857,3.019
20050115,013033,958012,33.584778,-120.753950,14.499,33.151,1.828,2.977
20050115,013102,958040,33.584916,-120.754080,14.498,33.154,1.871,3.039
20050115,013132,958071,33.585060,-120.754226,14.497,33.151,1.842,2.997
20050115,013203,958101,33.585193,-120.754365,14.502,33.152,1.871,3.039
20050115,013233,958131,33.585316,-120.754506,14.501,33.154,1.828,2.976
20050115,013302,958160,33.585450,-120.754605,14.501,33.153,1.799,2.934
20050115,013332,958190,33.585580,-120.754716,14.500,33.154,1.828,2.975
20050115,013402,958220,33.585695,-120.754843,14.500,33.153,1.813,2.954
20050115,013433,958251,33.585791,-120.754995,14.502,33.152,1.828,2.975
20050115,013503,958281,33.585891,-120.755146,14.502,33.153,1.813,2.954
20050115,013533,958312,33.585983,-120.755270,14.502,33.153,1.828,2.975
20050115,013603,958342,33.586078,-120.755383,14.504,33.154,1.799,2.933
20050115,013633,958372,33.586183,-120.755503,14.503,33.154,1.785,2.912
20050115,013702,958401,33.586270,-120.755621,14.502,33.153,1.813,2.953
20050115,013733,958431,33.586386,-120.755733,14.505,33.151,1.785,2.912
20050115,013803,958461,33.586490,-120.755861,14.505,33.154,1.813,2.953
20050115,013833,958492,33.586613,-120.756003,14.505,33.153,1.799,2.932
20050115,013903,958522,33.586726,-120.756133,14.504,33.153,1.828,2.973
20050115,013933,958551,33.586853,-120.756248,14.505,33.153,1.799,2.932
20050115,014003,958581,33.587001,-120.756400,14.507,33.152,1.799,2.932
20050115,014033,958611,33.587185,-120.756656,14.505,33.152,1.785,2.911
20050115,014103,958642,33.587383,-120.756966,14.507,33.153,1.799,2.931
20050115,014133,958672,33.587613,-120.757278,14.509,33.151,1.828,2.973
20050115,014203,958702,33.587801,-120.757551,14.509,33.153,1.813,2.952
20050115,014234,958733,33.587981,-120.757800,14.509,33.152,1.799,2.931
20050115,014303,958761,33.588141,-120.758035,14.510,33.153,1.785,2.911
20050115,014334,958792,33.588286,-120.758261,14.511,33.151,1.813,2.952
20050115,014403,958822,33.588421,-120.758488,14.510,33.153,1.813,2.952
20050115,014433,958852,33.588546,-120.758691,14.512,33.151,1.757,2.870
20050115,014503,958882,33.588675,-120.758885,14.512,33.152,1.799,2.931
20050115,014533,958911,33.588796,-120.759073,14.514,33.151,1.785,2.910
20050115,014603,958941,33.588885,-120.759230,14.516,33.152,1.757,2.870
20050115,014633,958971,33.588911,-120.759350,14.517,33.151,1.785,2.910
20050115,014703,959002,33.588900,-120.759398,14.516,33.151,1.799,2.931
20050115,014734,959032,33.588913,-120.759493,14.512,33.153,1.813,2.952
20050115,014804,959063,33.588998,-120.759670,14.511,33.151,1.799,2.931
20050115,014834,959093,33.589130,-120.759841,14.512,33.151,1.799,2.931
20050115,014904,959123,33.589261,-120.760038,14.512,33.152,1.813,2.952
20050115,014933,959152,33.589350,-120.760210,14.515,33.151,1.799,2.931
20050115,015004,959182,33.589430,-120.760348,14.515,33.152,1.799,2.931
20050115,015034,959212,33.589536,-120.760501,14.518,33.151,1.785,2.910
20050115,015104,959243,33.589651,-120.760686,14.517,33.151,1.771,2.891
20050115,015134,959273,33.589770,-120.760875,14.520,33.150,1.799,2.931
20050115,015204,959302,33.589901,-120.761060,14.518,33.150,1.828,2.973
20050115,015233,959332,33.590018,-120.761226,14.519,33.151,1.828,2.973
20050115,015304,959362,33.590141,-120.761393,14.522,33.150,1.799,2.931
20050115,015334,959393,33.590240,-120.761568,14.521,33.151,1.799,2.931
20050115,015404,959423,33.590366,-120.761768,14.520,33.153,1.813,2.952
20050115,015435,959453,33.590481,-120.761950,14.517,33.153,1.813,2.952
20050115,015505,959484,33.590596,-120.762126,14.518,33.152,1.813,2.952
20050115,015534,959512,33.590708,-120.762300,14.519,33.152,1.813,2.952
20050115,015604,959542,33.590855,-120.762480,14.520,33.151,1.813,2.952
20050115,015635,959573,33.590986,-120.762668,14.520,33.151,1.813,2.952
20050115,015705,959603,33.591103,-120.762840,14.522,33.148,1.799,2.931
20050115,015735,959633,33.591191,-120.762956,14.522,33.151,1.799,2.931
20050115,015805,959664,33.591281,-120.763083,14.526,33.148,1.828,2.973
20050115,015835,959694,33.591366,-120.763221,14.524,33.151,1.813,2.952
20050115,015905,959723,33.591470,-120.763381,14.523,33.151,1.813,2.952
20050115,015934,959753,33.591555,-120.763533,14.522,33.151,1.828,2.973
20050115,020005,959783,33.591603,-120.763675,14.517,33.153,1.828,2.973
20050115,020035,959814,33.591686,-120.763803,14.517,33.151,1.828,2.973
20050115,020105,959844,33.591783,-120.763968,14.516,31.129,1.813,2.952
20050115,020135,959874,33.591891,-120.764133,14.515,33.156,1.857,3.014
20050115,020205,959903,33.591958,-120.764258,14.517,33.151,1.813,2.952
20050115,020235,959933,33.592003,-120.764358,14.518,33.151,1.842,2.994
20050115,020305,959963,33.592013,-120.764456,14.520,33.154,1.799,2.931
20050115,020335,959994,33.592010,-120.764523,14.522,33.151,1.799,2.931
20050115,020405,960024,33.591985,-120.764591,14.521,33.153,1.785,2.910
20050115,020436,960055,33.591995,-120.764693,14.519,33.153,1.799,2.931
20050115,020505,960083,33.592015,-120.764811,14.518,33.152,1.813,2.952
20050115,020536,960115,33.592091,-120.764921,14.517,33.153,1.828,2.973
20050115,020605,960144,33.592198,-120.765061,14.517,33.151,1.842,2.994
20050115,020635,960174,33.592301,-120.765223,14.521,33.151,1.828,2.973
20050115,020705,960204,33.592408,-120.765413,14.522,33.151,1.828,2.973
20050115,020736,960235,33.592535,-120.765601,14.521,33.152,1.813,2.952
20050115,020805,960263,33.592668,-120.765795,14.520,33.152,1.842,2.994
20050115,020836,960295,33.592821,-120.766023,14.520,33.152,1.813,2.952
20050115,020906,960324,33.593025,-120.766325,14.523,33.151,1.813,2.952
20050115,020935,960354,33.593240,-120.766636,14.522,33.151,1.828,2.973
20050115,021006,960384,33.593460,-120.766926,14.521,33.153,1.813,2.952
20050115,021036,960415,33.593598,-120.767115,14.521,33.152,1.828,2.973
20050115,021106,960445,33.593691,-120.767238,14.522,33.152,1.828,2.973
20050115,021136,960474,33.593786,-120.767371,14.521,33.152,1.842,2.993
20050115,021205,960504,33.593875,-120.767488,14.521,33.155,1.813,2.952
20050115,021236,960534,33.593951,-120.767650,14.520,33.151,1.785,2.910
20050115,021306,960565,33.594045,-120.767781,14.516,33.155,1.828,2.973
20050115,021336,960595,33.594133,-120.767913,14.517,33.152,1.785,2.910
20050115,021407,960625,33.594213,-120.768035,14.524,33.148,1.771,2.891
20050115,021436,960654,33.594306,-120.768165,14.522,33.153,1.799,2.931
20050115,021506,960684,33.594418,-120.768315,14.517,33.155,1.813,2.952
20050115,021537,960716,33.594545,-120.768483,14.520,33.151,1.771,2.891
20050115,021606,960745,33.594683,-120.768655,14.521,33.152,1.785,2.910
20050115,021636,960775,33.594826,-120.768851,14.520,33.152,1.828,2.973
20050115,021707,960805,33.594988,-120.769063,14.519,33.154,1.799,2.931
20050115,021737,960836,33.595145,-120.769250,14.517,33.153,1.842,2.994
20050115,021806,960864,33.595315,-120.769428,14.517,33.152,1.799,2.931
20050115,021837,960895,33.595471,-120.769600,14.520,33.151,1.799,2.931
20050115,021907,960925,33.595626,-120.769760,14.519,33.153,1.757,2.870
20050115,021937,960955,33.595751,-120.769913,14.515,33.151,1.799,2.931
20050115,022007,960986,33.595875,-120.770063,14.515,33.151,1.742,2.849
20050115,022036,961014,33.595986,-120.770211,14.515,33.149,1.742,2.850
20050115,022107,961046,33.596118,-120.770351,14.515,33.153,1.757,2.870
20050115,022137,961075,33.596226,-120.770505,14.513,33.151,1.771,2.891
20050115,022207,961105,33.596353,-120.770653,14.517,33.149,1.742,2.850
20050115,022238,961136,33.596468,-120.770795,14.518,33.151,1.785,2.910
20050115,022308,961166,33.596588,-120.770933,14.516,33.151,1.813,2.952
20050115,022338,961196,33.596700,-120.771088,14.516,33.151,1.742,2.850
20050115,022407,961225,33.596880,-120.771233,14.517,33.151,1.742,2.849
20050115,022438,961257,33.597128,-120.771281,14.515,33.151,1.771,2.891
20050115,022507,961285,33.597430,-120.771250,14.517,33.149,1.799,2.931
20050115,022537,961316,33.597768,-120.771176,14.513,33.152,1.757,2.870
20050115,022608,961346,33.598093,-120.770991,14.513,33.156,1.771,2.891
20050115,022638,961376,33.598376,-120.770775,14.515,33.149,1.728,2.829
20050115,022708,961407,33.598580,-120.770568,14.514,33.149,1.742,2.850
20050115,022738,961437,33.598816,-120.770268,14.511,33.151,1.728,2.829
20050115,022807,961465,33.599046,-120.769876,14.513,33.149,1.799,2.931
20050115,022838,961496,33.599270,-120.769298,14.508,33.155,1.771,2.891
20050115,022908,961526,33.599550,-120.768493,14.507,33.151,1.686,2.768
20050115,022938,961556,33.599876,-120.767620,14.507,33.151,1.757,2.870
20050115,023008,961587,33.600228,-120.766616,14.504,33.151,1.714,2.809
20050115,023038,961617,33.600621,-120.765536,14.505,33.150,1.700,2.788
20050115,023109,961648,33.601090,-120.764315,14.505,33.149,1.728,2.829
20050115,023138,961676,33.601600,-120.762980,14.505,33.150,1.742,2.850
20050115,023208,961706,33.602178,-120.761513,14.502,33.152,1.757,2.870
20050115,023238,961737,33.602771,-120.759970,14.499,33.151,1.757,2.870
20050115,023308,961767,33.603383,-120.758395,14.496,33.150,1.813,2.952
20050115,023338,961797,33.604001,-120.756810,14.494,33.149,1.771,2.891
20050115,023408,961826,33.604606,-120.755218,14.497,33.148,1.728,2.829
20050115,023438,961856,33.605235,-120.753635,14.497,33.148,1.700,2.788
20050115,023508,961886,33.605850,-120.752036,14.496,33.147,1.771,2.891
20050115,023538,961917,33.606466,-120.750458,14.495,33.148,1.785,2.910
20050115,023608,961947,33.607076,-120.748880,14.494,33.147,1.714,2.809
20050115,023639,961977,33.607683,-120.747270,14.497,33.145,1.700,2.788
20050115,023708,962006,33.608305,-120.745673,14.495,33.146,1.686,2.768
20050115,023739,962038,33.608928,-120.744081,14.492,33.149,1.686,2.768
20050115,023808,962066,33.609545,-120.742478,14.489,33.148,1.672,2.747
20050115,023839,962097,33.610160,-120.740865,14.485,33.150,1.771,2.891
20050115,023909,962127,33.610813,-120.739208,14.479,33.150,1.700,2.788
20050115,023939,962158,33.611433,-120.737610,14.478,33.148,1.742,2.850
20050115,024008,962186,33.612030,-120.736058,14.480,33.143,1.644,2.708
20050115,024039,962218,33.612641,-120.734440,14.482,33.146,1.588,2.627
20050115,024109,962247,33.613275,-120.732770,14.476,33.149,1.630,2.688
20050115,024139,962277,33.613895,-120.731170,14.472,33.150,1.616,2.667
20050115,024208,962307,33.614498,-120.729611,14.474,33.145,1.561,2.587
20050115,024238,962336,33.615101,-120.727998,14.474,33.147,1.616,2.668
20050115,024308,962366,33.615713,-120.726378,14.474,33.145,1.658,2.728
20050115,024339,962397,33.616331,-120.724766,14.471,33.147,1.700,2.788
20050115,024409,962427,33.616975,-120.723103,14.473,33.147,1.771,2.891
20050115,024438,962457,33.617560,-120.721540,14.472,33.148,1.771,2.891
20050115,024508,962486,33.618175,-120.719925,14.472,33.145,1.686,2.768
20050115,024539,962518,33.618796,-120.718310,14.474,33.145,1.686,2.768
20050115,024609,962548,33.619421,-120.716636,14.474,33.146,1.658,2.728
20050115,024639,962577,33.620010,-120.715060,14.472,33.148,1.714,2.809